GEESAT 3-06

导读

GEESAT 3-06是中国吉利未来出行星座(GeeSAT)第三批次卫星之一,于2024年9月5日由中国发射,由吉利旗下时空道宇自主研发。该卫星属于低轨导航增强卫星,作为吉利构建天地一体化高精时空信息系统的组成部分,将与已部署卫星协同,赋能智慧出行、智能驾驶、智慧城市等领域,提供高精度定位、天基通信等服务。

基本信息
目录编号:
61016
目录名称:
GEESAT 3-06
国际标识:
2024-159F
轨道中心:
EARTH
卫星名称:
GEESAT 3-06
卫星全名:
GEESAT 3-06
卫星状态:
在轨 (已飞行736 天)
发射日期:
2024-09-05 UTC
国别 :
中国 (CN)
星等 :
--
该卫星已列入 空间交会检测服务 Space Conjunction Data Service (SCDS) ,当前飞行风险评估等级: 无高风险
轨道信息
数据来源 国际轨道数据
星历时间: 2026-09-11T14:44:13+0800
7小时前
查看轨道信息
半长轴: 6993.307km
偏心率: 0.0016261
轨道倾角: 49.999°
近地点辐角 49.651°
升交点赤经 43.924°
平近点角 310.585°
近地点: 603.798km
远地点: 626.542km
周期: 97.003分钟
每日圈数: 14.844956
详细信息
使用方式:
暂无
2D轨道图
3D轨道图
轨道高度分析图
轨道倾角分析图
轨道综合分析图
查看轨道综合分析图
与全量物体交会距离演化趋势
与全量物体交会风险概率演化趋势